General Aviation Weather

Text Reports

Enter one or more of the following location identifiers separated by a space:

Zip Code, Four-Character ICAO or Three-Character IATA airport codes.

METAR - Aviation Routine Weather Report
KAIZ - Kaiser, Missouri
Updated at 10:15 PM GMT on August 01, 2015 (5:15 PM CDT):
METAR KAIZ 012215Z AUTO 23005KT 10SM CLR 26/16 A3001 RMK AO1
TAF - Terminal Area Forecast
KAIZ - Kaiser, Missouri
Updated at 10:15 PM GMT on August 01, 2015 (5:15 PM CDT):
No TAF is currently available for this location.
Decoded:
No decoded TAF is available.
PIREP - Pilot Weather Report
KAIZ - Kaiser, Missouri
Updated at 10:15 PM GMT on August 01, 2015 (5:15 PM CDT):
No PIREP is currently available for this location.
AIRMET - Airmens Meteorological Information
KAIZ - Kaiser, Missouri
Updated at 10:15 PM GMT on August 01, 2015 (5:15 PM CDT):
No AIRMET is currently available for this location.
SIGMET - Significant Meteorological Information
KAIZ - Kaiser, Missouri
Updated at 10:15 PM GMT on August 01, 2015 (5:15 PM CDT):
No SIGMET is currently available for this location.
NOTAM - Notice to Airmen
KAIZ - Kaiser, Missouri
Updated at 10:15 PM GMT on August 01, 2015 (5:15 PM CDT):
No NOTAM is currently available for this location.
Forecast Area
KAIZ - Kaiser, Missouri
Updated at 10:15 PM GMT on August 01, 2015 (5:15 PM CDT):
No NOTAM is currently available for this location.
Aviation Weather Maps